Home   Weather   Sarajevo   Past weeks

Flag for Bosnia-Herzegovina Past Weather in Sarajevo, Bosnia-Herzegovina — Yesterday and Last 2 Weeks

Now
72 °F

Passing clouds.


Feels Like: 75 °F
Forecast: 60 / 78 °F
Wind: 3 mph from Northwest

Location: Sarajevo / Butmir

Current Time: Aug 30, 2016 at 9:06:15 PM

Latest Report: Aug 30, 2016 at 8:30 PM


Visibility: N/A

Pressure: 30.18 "Hg (28.40 "Hg at 526m altitude)

Humidity: 69%

Dew Point: 61 °F

Location of SarajevoLocation

Past Weather in Sarajevo — Graph

°F

Sarajevo Temperature Yesterday

Maximum temperature yesterday: 84 °F (at 4:00 PM)
Minimum temperature yesterday: 54 °F (at 5:30 AM)
Average temperature yesterday: 69 °F

High & Low Weather Summary for the Past Weeks

 TemperatureHumidityPressure
High86 °F (Aug 21, 3:00 PM)100% (Aug 16, 4:00 AM)30.30 "Hg (Aug 16, 4:00 AM)
Low54 °F (Aug 28, 4:00 AM)29% (Aug 29, 4:00 PM)29.89 "Hg (Aug 17, 1:00 PM)
Average65 °F82%30.12 "Hg
* Reported Aug 15 8:00 PM — Aug 30 8:00 PM, Sarajevo, Weather by CustomWeather, © 2016

Note: Actual official high and low records may vary slightly from our data, if they occured in-between our weather recording intervals... More about our weather records

Advertising

Sarajevo Weather History for the Previous 24 Hours

Scroll right to see more
 ConditionsComfort  
Time TempWeatherWind HumidityBarometerVisibility
8:00 PM
Tue, Aug 30
73 °FPartly sunny.5 mph65%30.15 "HgN/A
7:30 PM73 °FPartly sunny.5 mph65%30.15 "HgN/A
7:00 PM75 °FPartly sunny.3 mph61%30.15 "HgN/A
6:30 PM77 °FPartly sunny.6 mph54%30.12 "HgN/A
6:00 PM77 °FPartly sunny.5 mph57%30.12 "HgN/A
5:30 PM77 °FScattered clouds.6 mph54%30.12 "HgN/A
5:00 PM79 °FScattered clouds.8 mph51%30.12 "HgN/A
4:30 PM79 °FScattered clouds.6 mph51%30.15 "HgN/A
4:00 PM81 °FScattered clouds.7 mph51%30.15 "HgN/A
3:30 PM79 °FScattered clouds.3 mph51%30.15 "HgN/A
3:00 PM79 °FScattered clouds.5 mph54%30.15 "HgN/A
2:30 PM79 °FScattered clouds.6 mph54%30.15 "HgN/A
2:00 PM79 °FScattered clouds.6 mph58%30.15 "HgN/A
1:30 PM79 °FScattered clouds.2 mph58%30.18 "HgN/A
1:00 PM75 °FScattered clouds.3 mph61%30.18 "HgN/A
12:30 PM75 °FScattered clouds.3 mph65%30.18 "HgN/A
12:00 PM73 °FScattered clouds.3 mph65%30.18 "HgN/A
11:30 AM72 °FScattered clouds.3 mph69%30.21 "HgN/A
11:00 AM72 °FScattered clouds.2 mph73%30.21 "HgN/A
10:30 AM68 °FScattered clouds.1 mph78%30.21 "HgN/A
10:00 AM66 °FScattered clouds.1 mph78%30.21 "HgN/A
9:30 AM64 °FScattered clouds.1 mph83%30.21 "HgN/A
9:00 AM61 °FScattered clouds.1 mph88%30.18 "HgN/A
8:30 AM59 °FScattered clouds.1 mph94%30.18 "HgN/A
8:00 AM59 °FPassing clouds.1 mph94%30.18 "HgN/A
7:30 AM57 °FPassing clouds.2 mph94%30.18 "Hg4 mi
7:00 AM55 °FPassing clouds.1 mph100%30.18 "Hg4 mi
6:30 AM55 °FPassing clouds.1 mph100%30.15 "Hg4 mi
6:00 AM55 °FPassing clouds.1 mph94%30.15 "Hg4 mi
5:30 AM55 °FPassing clouds.No wind94%30.15 "Hg5 mi
5:00 AM55 °FClear.1 mph100%30.15 "Hg10 mi
4:00 AM57 °FPassing clouds.2 mph94%30.15 "HgN/A
3:00 AM59 °FPassing clouds.2 mph88%30.12 "HgN/A
2:00 AM59 °FPassing clouds.1 mph88%30.12 "HgN/A
1:00 AM61 °FPassing clouds.1 mph88%30.12 "HgN/A
12:00 AM61 °FPassing clouds.2 mph88%30.12 "HgN/A
11:00 PM
Mon, Aug 29
63 °FClear.2 mph83%30.09 "Hg10 mi
10:30 PM64 °FClear.1 mph83%30.09 "Hg10 mi
10:00 PM64 °FClear.1 mph83%30.09 "Hg10 mi
9:30 PM66 °FClear.1 mph78%30.07 "Hg10 mi
9:00 PM66 °FClear.1 mph78%30.07 "Hg10 mi
Weather by CustomWeather, © 2016

See weather overviewHow to use our weather pages